[[{"header":{"parameterUnit":"m.s-1","parameterCategory":1,"la1":30.2991,"la2":30.254,"lo1":-89.0895,"lo2":-89.0444,"dy":0.0017,"dx":0.0017,"nx":28,"ny":28,"refTime":"2024-03-11T21:00:00:Z","depth":0,"parameterNumber":2,"parameterNumberName":"U-component_of_WINDS"},"data":[0,0,0,0,0,0,0,0,0,0,0,0,0,0,0,0,0,0,0,0,0,0,0,0,0,0,0,0,0,0,0,0,0,0,0,0,0,0,0,0,0,0,0,0,0,0,0,0,0,0,0,0,0,0,0,0,0,0,0.1103,0.1103,0,0.109,0.109,0.109,0.1107,0.1108,0.1108,0.1109,0.1093,0.1092,0.1091,0,0,0,0,0,0,0,0,0,0,0,0,0,0.1139,0.1139,0.1103,0.1103,0.1103,0.109,0.109,0.109,0.1107,0.1108,0.1109,0.1109,0.1093,0.1092,0.1091,0,0,0,0,0,0,0,0,0,0,0,0,0,0.1125,0.1138,0.1103,0.111,0.111,0.109,0.109,0.109,0.1107,0.1108,0.1109,0.111,0.1094,0.1092,0.1091,0.1063,0,0,0.1086,0.1085,0,0,0,0,0,0,0,0,0.1125,0.1123,0.1109,0.111,0.111,0.1101,0.1097,0.1081,0.1107,0.1108,0.1109,0.111,0.1095,0.1093,0.1089,0.1062,0.1061,0.1086,0.1085,0.1084,0.1084,0,0,0,0,0,0,0,0.1126,0.1124,0.1098,0.1109,0.1109,0.1113,0.1112,0.1094,0.1096,0.1108,0.1109,0.1108,0.1095,0.109,0.1088,0.1061,0.1086,0.1085,0.1084,0.1083,0.1008,0.1007,0,0,0,0,0,0,0.1127,0.1125,0.1098,0.1098,0.112,0.1111,0.111,0.1103,0.1097,0.1097,0.1107,0.1109,0.1092,0.109,0.1088,0.1053,0.1084,0.1083,0.1082,0.101,0.1008,0.1007,0,0,0,0,0,0,0.1128,0.1125,0.1099,0.1112,0.1109,0.111,0.1102,0.1102,0.1097,0.1096,0.1096,0.1102,0.1093,0.109,0.1069,0.1053,0.1082,0.1081,0.1011,0.1009,0.1008,0.0985,0,0,0,0,0,0,0.1129,0.1125,0.1115,0.1111,0.1108,0.1081,0.1101,0.1101,0.1095,0.1097,0.1091,0.1091,0.1093,0.1071,0.1067,0.1052,0.108,0.1012,0.101,0.1008,0.0987,0.0982,0.0979,0,0,0,0,0,0.113,0.1109,0.1114,0.1111,0.1096,0.108,0.1078,0.1082,0.1094,0.1083,0.1082,0.1091,0.1056,0.1068,0.1064,0.1048,0.1013,0.1011,0.1008,0.0989,0.0983,0.0979,0,0,0,0,0,0,0.111,0.1108,0.1115,0.1092,0.1086,0.1083,0.107,0.1077,0.1067,0.1069,0.1075,0.1073,0.105,0.1047,0.1061,0.102,0.1036,0.1033,0.1022,0.1017,0.1013,0.1014,0.1079,0,0,0,0,0,0.1103,0.1091,0.109,0.107,0.1067,0.1069,0.1062,0.1066,0.106,0.1057,0.1055,0.1047,0.1034,0.1026,0.1014,0.0987,0.0985,0.0973,0.0969,0.0966,0.0963,0.0946,0.0941,0.0999,0.0999,0.0999,0,0,0.1088,0.1086,0.1078,0.1066,0.1062,0.1048,0.1066,0.1052,0.1041,0.1055,0.1034,0.1032,0.1024,0.0999,0.0988,0.0996,0.0946,0.0963,0.096,0.0959,0.0943,0.0938,0.0933,0.0998,0.0998,0.0998,0,0,0.1054,0.1052,0.1034,0.103,0.1023,0.1025,0.102,0.1016,0.1015,0.0995,0.1004,0.0992,0.097,0.0964,0.0957,0.092,0.0927,0.0916,0.0895,0.0879,0.0874,0.087,0.0855,0.085,0.0913,0.0913,0.0913,0,0.1036,0.1017,0.1024,0.1008,0.1002,0.1014,0.0995,0.099,0.098,0.0975,0.0985,0.0957,0.0952,0.0925,0.0916,0.0911,0.0905,0.0916,0.0874,0.087,0.0867,0.0852,0.0847,0.0911,0.0912,0.0912,0.0912,0,0.0994,0.0981,0.0967,0.0958,0.095,0.0933,0.0936,0.0927,0.0932,0.0931,0.091,0.0905,0.0892,0.0886,0.089,0.0859,0.0864,0.0874,0.089,0.086,0.0846,0.0841,0.0909,0.091,0.091,0.0911,0,0,0.0947,0.0941,0.0936,0.0931,0.0925,0.0914,0.0897,0.0885,0.0877,0.0869,0.0854,0.0835,0.0844,0.0837,0.084,0.0826,0.0795,0.0838,0.0838,0.0829,0.0759,0.0751,0.0744,0.08,0.0799,0.0799,0.0759,0,0.0912,0.0883,0.0888,0.086,0.0847,0.0858,0.0843,0.0836,0.0836,0.0823,0.0822,0.0808,0.0822,0.0817,0.0804,0.0802,0.0781,0.0805,0.0784,0.0784,0.0785,0.0738,0.0729,0.0692,0.0754,0.0753,0.0753,0,0.0867,0.0858,0.0829,0.0824,0.0818,0.0805,0.0794,0.0782,0.0775,0.0775,0.0767,0.0773,0.0754,0.0771,0.0745,0.0761,0.0753,0.075,0.0749,0.0746,0.0765,0.0732,0.0681,0.0674,0.0745,0.0745,0.0746,0,0.0834,0.0815,0.0794,0.079,0.0784,0.0774,0.0771,0.0765,0.0757,0.0746,0.0741,0.0728,0.0721,0.0711,0.0712,0.0725,0.0684,0.0702,0.0683,0.0683,0.0673,0.0673,0.0618,0.067,0.067,0.067,0.067,0,0.0793,0.0774,0.0779,0.0766,0.0745,0.075,0.0729,0.0727,0.0721,0.0707,0.0716,0.0702,0.0706,0.0692,0.0693,0.067,0.0667,0.0665,0.0665,0.0664,0.0664,0.0658,0.066,0.0668,0.0669,0.0669,0.0669,0,0.0752,0.0755,0.0733,0.0729,0.0728,0.0712,0.0708,0.0695,0.0695,0.0677,0.0673,0.0673,0.0657,0.0657,0.0639,0.064,0.0611,0.0615,0.0613,0.0614,0.0594,0.0595,0.0531,0.0523,0.0582,0.0581,0.0581,0,0.0725,0.0711,0.0706,0.0698,0.0694,0.068,0.0672,0.0677,0.0668,0.0658,0.0646,0.0631,0.0619,0.0593,0.059,0.0576,0.0578,0.0557,0.0576,0.0575,0.0576,0.0577,0.0575,0.0553,0.0552,0.0552,0.0551,0,0.0677,0.0679,0.0668,0.0657,0.0647,0.0638,0.063,0.0623,0.0626,0.0616,0.06,0.0591,0.0572,0.0556,0.0543,0.0538,0.0544,0.0546,0.054,0.0537,0.0537,0.0535,0.0602,0.0547,0.0547,0.0547,0.0548,0.0548,0.0642,0.0629,0.0623,0.061,0.0605,0.0597,0.0584,0.0583,0.057,0.0556,0.0559,0.0541,0.0533,0.0515,0.0509,0.0494,0.0501,0.0493,0.0491,0.0489,0.0486,0.054,0.0491,0.0491,0.0492,0.0492,0.0492,0,0.0593,0.059,0.0578,0.0566,0.0556,0.0564,0.0556,0.0545,0.053,0.0522,0.051,0.0491,0.0476,0.0472,0.0457,0.0445,0.0448,0.0441,0.0441,0.0439,0.0481,0.0487,0.0439,0.0439,0.0439,0.0439,0.0439,0.0439,0.0566,0.0545,0.0546,0.0522,0.0518,0.0501,0.0495,0.0487,0.0481,0.046,0.0448,0.0446,0.0439,0.0423,0.0409,0.0408,0.0401,0.0393,0.0393,0.0431,0.0437,0.0442,0.0447,0.0392,0.0392,0.0352,0.0352,0.0352]},{"header":{"parameterUnit":"m.s-1","parameterCategory":1,"la1":30.2991,"la2":30.254,"lo1":-89.0895,"lo2":-89.0444,"dy":0.0017,"dx":0.0017,"nx":28,"ny":28,"refTime":"2024-03-11T21:00:00:Z","depth":0,"parameterNumber":3,"parameterNumberName":"V-component_of_WINDS"},"data":[0,0,0,0,0,0,0,0,0,0,0,0,0,0,0,0,0,0,0,0,0,0,0,0,0,0,0,0,0,0,0,0,0,0,0,0,0,0,0,0,0,0,0,0,0,0,0,0,0,0,0,0,0,0,0,0,0,0,1.3555,1.3554,0,1.3501,1.35,1.35,1.3445,1.3444,1.3443,1.3443,1.3386,1.3385,1.3385,0,0,0,0,0,0,0,0,0,0,0,0,0,1.3608,1.3607,1.3555,1.3554,1.3553,1.3501,1.35,1.3499,1.3445,1.3444,1.3443,1.3442,1.3386,1.3385,1.3384,0,0,0,0,0,0,0,0,0,0,0,0,0,1.3573,1.3607,1.3555,1.352,1.3516,1.3501,1.35,1.3499,1.3445,1.3444,1.3443,1.3442,1.3387,1.3386,1.3384,1.3399,0,0,1.3381,1.338,0,0,0,0,0,0,0,0,1.3575,1.3571,1.3526,1.3522,1.3518,1.3478,1.3498,1.3466,1.3446,1.3472,1.3443,1.3441,1.3418,1.3414,1.3406,1.3396,1.3394,1.338,1.338,1.3379,1.3379,0,0,0,0,0,0,0,1.3577,1.3573,1.3533,1.3525,1.3521,1.3506,1.35,1.3492,1.3452,1.347,1.3466,1.346,1.3415,1.3407,1.3404,1.3393,1.338,1.3379,1.3379,1.3378,1.339,1.3391,0,0,0,0,0,0,1.3585,1.3575,1.3535,1.3532,1.3544,1.3506,1.3499,1.3492,1.3452,1.3444,1.3461,1.3458,1.341,1.3406,1.3402,1.3415,1.3379,1.3378,1.3377,1.3389,1.339,1.3391,0,0,0,0,0,0,1.3587,1.3582,1.3537,1.3552,1.3545,1.3506,1.3499,1.3492,1.3484,1.3445,1.3438,1.3461,1.3409,1.3404,1.34,1.3412,1.3377,1.3376,1.3388,1.3389,1.3391,1.3442,0,0,0,0,0,0,1.3588,1.3583,1.3589,1.3553,1.3545,1.3537,1.35,1.3492,1.3482,1.3477,1.3443,1.3436,1.3408,1.3402,1.3398,1.341,1.3375,1.3386,1.3388,1.339,1.3439,1.3445,1.345,0,0,0,0,0,1.359,1.3605,1.3589,1.3585,1.3551,1.3537,1.3533,1.3501,1.3483,1.3488,1.3463,1.3437,1.3412,1.3402,1.3398,1.3409,1.3385,1.3388,1.339,1.3436,1.3444,1.345,0,0,0,0,0,0,1.3644,1.36,1.3582,1.3586,1.3566,1.3528,1.3534,1.351,1.3494,1.349,1.3451,1.3443,1.3443,1.3426,1.3416,1.342,1.3395,1.3396,1.3431,1.3438,1.3444,1.3447,1.3374,0,0,0,0,0,1.3656,1.3649,1.3611,1.3618,1.3609,1.3573,1.3566,1.3543,1.352,1.3512,1.3486,1.3465,1.3452,1.3444,1.343,1.3436,1.3427,1.3442,1.3447,1.3452,1.3454,1.3454,1.346,1.3399,1.3399,1.3399,0,0,1.3681,1.3656,1.3654,1.3628,1.361,1.3602,1.3566,1.3561,1.3554,1.351,1.3505,1.3485,1.3459,1.3459,1.3458,1.3444,1.3468,1.3455,1.3459,1.3458,1.3457,1.3463,1.3468,1.3401,1.34,1.34,0,0,1.3723,1.3704,1.3707,1.369,1.3662,1.3638,1.3639,1.3605,1.359,1.3584,1.355,1.3542,1.3521,1.3503,1.3491,1.3525,1.3499,1.3521,1.3551,1.3551,1.3556,1.356,1.3571,1.3575,1.3523,1.3523,1.3523,0,1.3757,1.3746,1.3712,1.3707,1.3696,1.3656,1.3658,1.3643,1.3613,1.3605,1.359,1.3562,1.3541,1.3536,1.3545,1.3537,1.3535,1.3525,1.3558,1.3562,1.3565,1.3575,1.3579,1.3526,1.3526,1.3525,1.3525,0,1.3788,1.3781,1.3786,1.3758,1.3748,1.3747,1.3712,1.3705,1.3683,1.366,1.3653,1.3627,1.3606,1.3603,1.3581,1.3594,1.3586,1.3566,1.3539,1.3574,1.3582,1.3586,1.353,1.3529,1.3528,1.3527,0,0,1.3862,1.3815,1.3817,1.3803,1.377,1.3763,1.376,1.374,1.3734,1.3714,1.3709,1.3692,1.3672,1.3658,1.3634,1.3635,1.3661,1.3613,1.3612,1.3622,1.3672,1.3687,1.3692,1.3644,1.3645,1.3645,1.3674,0,1.3898,1.389,1.3859,1.386,1.3851,1.3813,1.3809,1.3788,1.3766,1.3755,1.3731,1.3719,1.3694,1.3685,1.3684,1.3658,1.367,1.3656,1.3638,1.3638,1.3645,1.3697,1.3713,1.3741,1.3677,1.3677,1.3678,0,1.3938,1.392,1.3921,1.3886,1.3882,1.388,1.3858,1.3848,1.3822,1.3806,1.3791,1.3764,1.3756,1.3733,1.3721,1.3712,1.3703,1.3689,1.3689,1.3685,1.3659,1.3693,1.3749,1.3753,1.3683,1.3682,1.3682,0,1.399,1.3967,1.3964,1.3953,1.3913,1.3912,1.3896,1.3869,1.3858,1.3839,1.3832,1.3812,1.3801,1.3785,1.3753,1.3739,1.3744,1.3718,1.373,1.3731,1.3732,1.3732,1.3787,1.3728,1.3728,1.3728,1.3728,0,1.4032,1.4033,1.3986,1.3984,1.3984,1.3948,1.3948,1.3928,1.3904,1.3896,1.3862,1.3855,1.3813,1.3801,1.3775,1.3769,1.3765,1.375,1.3743,1.3753,1.3755,1.3746,1.3742,1.3729,1.3729,1.3729,1.3728,0,1.409,1.4059,1.4053,1.4016,1.4006,1.4008,1.3975,1.3971,1.3947,1.3937,1.3933,1.3895,1.3879,1.3845,1.382,1.3802,1.3801,1.379,1.381,1.3806,1.3818,1.3817,1.3868,1.3872,1.3813,1.3813,1.3814,0,1.4119,1.4119,1.4082,1.4074,1.4059,1.4047,1.4036,1.4,1.399,1.396,1.3959,1.394,1.3923,1.3899,1.3869,1.3849,1.3835,1.3854,1.3832,1.3841,1.3834,1.3834,1.3833,1.3859,1.386,1.3861,1.3861,0,1.4172,1.4156,1.4142,1.4123,1.411,1.4093,1.4073,1.4069,1.4028,1.4018,1.4001,1.3988,1.3962,1.3943,1.3918,1.39,1.3873,1.3869,1.387,1.3879,1.3891,1.3883,1.3823,1.3868,1.3867,1.3866,1.3866,1.3866,1.4215,1.4213,1.4186,1.4171,1.4153,1.4135,1.4129,1.4104,1.409,1.4066,1.4045,1.403,1.4002,1.3966,1.3949,1.3936,1.3923,1.3925,1.3926,1.3927,1.393,1.3894,1.3931,1.3931,1.3931,1.3931,1.3931,0,1.4266,1.4246,1.4233,1.4207,1.4195,1.4172,1.4148,1.4139,1.4127,1.4104,1.4088,1.4067,1.4049,1.4016,1.3995,1.399,1.3977,1.3985,1.3985,1.398,1.3943,1.3944,1.3996,1.3996,1.3996,1.3996,1.3996,1.3996,1.4291,1.4285,1.4266,1.425,1.423,1.4216,1.4204,1.4187,1.4169,1.4148,1.4132,1.4112,1.4084,1.406,1.4041,1.4032,1.4025,1.4037,1.4024,1.399,1.3983,1.3977,1.3978,1.4036,1.4036,1.4061,1.4062,1.4062]}]]